EW9078 Weather Reports


time (UTC)temp
C
wind
direction
speed
KPH
gust
KPH
rain 1hr
cm
rain 24hr
cm
rain mn
cm
humidity
%
barometer
mb
20260505000504 28 303 11.3 29.0 0.00 0.00 0.00 28 995.3
20260505000004 28 304 12.9 32.2 0.00 0.00 0.00 28 995.3
20260504235504 28 310 12.9 32.2 0.00 0.00 0.00 26 995.6
20260504235004 28 308 9.7 32.2 0.00 0.00 0.00 25 995.5
20260504234504 28 306 8.0 37.0 0.00 0.00 0.00 23 995.6
20260504233505 29 301 8.0 24.1 0.00 0.00 0.00 21 995.4
20260504233005 29 295 8.0 29.0 0.00 0.00 0.00 20 995.3
20260504232505 29 288 9.7 29.0 0.00 0.00 0.00 20 995.4
20260504232005 29 286 8.0 35.4 0.00 0.00 0.00 19 995.4
20260504231504 30 288 8.0 35.4 0.00 0.00 0.00 19 995.5
20260504231004 30 301 8.0 30.6 0.00 0.00 0.00 20 995.6
20260504230504 30 301 9.7 30.6 0.00 0.00 0.00 22 995.6
20260504230005 30 288 8.0 25.7 0.00 0.00 0.00 22 995.6
20260504225504 30 287 6.4 22.5 0.00 0.00 0.00 26 995.6
20260504225004 30 311 9.7 37.0 0.00 0.00 0.00 27 995.6
20260504224504 30 310 11.3 37.0 0.00 0.00 0.00 28 995.6
20260504223504 30 299 12.9 30.6 0.00 0.00 0.00 28 995.7
20260504223004 30 296 11.3 30.6 0.00 0.00 0.00 28 995.6
20260504222504 31 289 8.0 25.7 0.00 0.00 0.00 28 995.6
20260504222004 31 287 6.4 25.7 0.00 0.00 0.00 28 995.6
20260504221504 31 265 6.4 30.6 0.00 0.00 0.00 27 995.6
20260504221005 31 274 9.7 30.6 0.00 0.00 0.00 27 995.6
20260504220505 31 272 9.7 30.6 0.00 0.00 0.00 27 995.6
20260504220004 31 258 4.8 24.1 0.00 0.00 0.00 26 995.7
20260504215004 32 294 6.4 24.1 0.00 0.00 0.00 26 996.0
20260504214504 32 277 6.4 24.1 0.00 0.00 0.00 25 996.1
20260504214004 32 260 4.8 19.3 0.00 0.00 0.00 24 996.1
20260504213504 32 263 6.4 19.3 0.00 0.00 0.00 24 996.0
20260504212505 31 220 9.7 30.6 0.00 0.00 0.00 25 996.1
20260504212004 31 242 6.4 27.4 0.00 0.00 0.00 26 996.1
20260504211505 31 248 8.0 22.5 0.00 0.00 0.00 25 996.2
20260504211004 31 243 8.0 22.5 0.00 0.00 0.00 24 996.3
20260504210504 31 246 8.0 25.7 0.00 0.00 0.00 22 996.5
20260504210004 31 242 9.7 25.7 0.00 0.00 0.00 20 996.6
20260504205505 31 232 6.4 25.7 0.00 0.00 0.00 22 996.6
20260504205004 31 223 8.0 32.2 0.00 0.00 0.00 23 996.7
20260504204004 31 215 8.0 33.8 0.00 0.00 0.00 22 996.6
20260504203505 31 209 4.8 25.7 0.00 0.00 0.00 22 996.6
20260504202504 31 233 9.7 38.6 0.00 0.00 0.00 23 996.8
20260504202004 31 224 3.2 33.8 0.00 0.00 0.00 24 996.9
20260504201504 31 215 6.4 32.2 0.00 0.00 0.00 25 996.8
20260504201004 31 212 9.7 32.2 0.00 0.00 0.00 26 997.2
20260504200504 31 215 6.4 25.7 0.00 0.00 0.00 27 997.2
20260504200004 31 221 9.7 25.7 0.00 0.00 0.00 28 997.2
20260504195504 30 225 11.3 25.7 0.00 0.00 0.00 28 997.2
20260504195004 31 230 6.4 22.5 0.00 0.00 0.00 29 997.2
20260504194504 31 272 3.2 22.5 0.00 0.00 0.00 29 997.2
20260504194004 30 250 4.8 16.1 0.00 0.00 0.00 30 997.4
20260504193504 30 202 6.4 22.5 0.00 0.00 0.00 32 997.2
20260504193004 30 212 6.4 22.5 0.00 0.00 0.00 32 997.3
20260504192505 30 219 4.8 22.5 0.00 0.00 0.00 31 997.7
20260504192004 30 209 6.4 17.7 0.00 0.00 0.00 31 997.6
20260504191004 30 210 9.7 33.8 0.00 0.00 0.00 28 997.8
20260504190504 30 199 8.0 25.7 0.00 0.00 0.00 28 997.8
20260504190004 30 208 6.4 25.7 0.00 0.00 0.00 28 997.8
20260504185504 30 230 6.4 24.1 0.00 0.00 0.00 31 997.8
20260504185004 29 226 6.4 24.1 0.00 0.00 0.00 31 998.2
20260504184504 28 221 9.7 30.6 0.00 0.00 0.00 34 998.2
20260504184004 28 230 9.7 30.6 0.00 0.00 0.00 35 998.2
20260504183003 29 205 4.8 14.5 0.00 0.00 0.00 33 998.3
20260504182505 29 197 6.4 20.9 0.00 0.00 0.00 34 998.3
20260504181004 28 220 8.0 20.9 0.00 0.00 0.00 36 998.6
20260504180004 28 199 6.4 22.5 0.00 0.00 0.00 39 998.7
20260504175504 28 182 4.8 11.3 0.00 0.00 0.00 39 998.7
20260504175004 27 197 4.8 16.1 0.00 0.00 0.00 39 998.7
20260504174004 27 176 6.4 20.9 0.00 0.00 0.00 41 999.1
20260504173004 27 164 6.4 22.5 0.00 0.00 0.00 42 998.9
20260504172504 27 171 4.8 22.5 0.00 0.00 0.00 43 999.1
20260504172004 27 178 4.8 14.5 0.00 0.00 0.00 43 998.7
20260504171504 27 172 3.2 16.1 0.00 0.00 0.00 43 998.8
20260504171004 27 185 3.2 16.1 0.00 0.00 0.00 43 998.8
20260504170504 26 203 3.2 11.3 0.00 0.00 0.00 44 998.8
20260504151004 23 186 1.6 6.4 0.00 0.00 0.00 58 999.1
20260504150504 23 186 1.6 6.4 0.00 0.00 0.00 57 999.0
20260504140504 21 0 0.0 0.0 0.00 0.00 0.00 47 998.6
20260504130503 19 0 0.0 0.0 0.00 0.00 0.00 48 997.5
20260504110504 21 197 0.0 6.4 0.00 0.00 0.00 44 997.1
20260504100504 21 0 0.0 0.0 0.00 0.00 0.00 46 996.7
20260504081505 22 0 0.0 0.0 0.00 0.00 0.00 43 996.9
20260504081005 22 0 0.0 0.0 0.00 0.00 0.00 43 997.1
20260504080505 22 0 0.0 0.0 0.00 0.00 0.00 43 996.9
20260504050505 25 298 3.2 24.1 0.00 0.00 0.00 35 997.6
20260504050005 25 296 3.2 19.3 0.00 0.00 0.00 35 997.6
20260504045505 25 292 1.6 11.3 0.00 0.00 0.00 35 997.7
20260504044505 25 295 1.6 14.5 0.00 0.00 0.00 36 997.4
20260504044005 25 302 1.6 14.5 0.00 0.00 0.00 35 997.3
20260504043505 25 290 1.6 16.1 0.00 0.00 0.00 36 997.5
20260504043007 25 287 1.6 16.1 0.00 0.00 0.00 37 997.6
20260504042506 25 293 1.6 14.5 0.00 0.00 0.00 38 997.7
20260504042005 25 286 1.6 16.1 0.00 0.00 0.00 37 997.4
20260504041505 25 284 1.6 16.1 0.00 0.00 0.00 37 997.2
20260504041005 25 310 4.8 29.0 0.00 0.00 0.00 36 997.2
20260504040005 25 294 4.8 22.5 0.00 0.00 0.00 35 997.2
20260504035505 25 292 4.8 27.4 0.00 0.00 0.00 35 997.2
20260504035006 25 295 4.8 27.4 0.00 0.00 0.00 34 997.1
20260504034506 25 296 4.8 25.7 0.00 0.00 0.00 35 997.1
20260504034006 26 301 8.0 25.7 0.00 0.00 0.00 34 997.1
20260504033506 26 308 4.8 27.4 0.00 0.00 0.00 32 996.8
20260504033006 26 314 3.2 27.4 0.00 0.00 0.00 34 996.7
20260504032505 26 311 3.2 22.5 0.00 0.00 0.00 35 996.6
20260504032005 26 300 4.8 22.5 0.00 0.00 0.00 35 996.5
20260504031006 26 302 4.8 20.9 0.00 0.00 0.00 35 996.3
20260504030506 26 297 8.0 30.6 0.00 0.00 0.00 35 996.2
20260504030006 26 297 8.0 30.6 0.00 0.00 0.00 34 996.1
20260504025505 26 307 8.0 33.8 0.00 0.00 0.00 35 996.1
20260504024505 26 303 8.0 29.0 0.00 0.00 0.00 35 996.0
20260504024005 26 310 8.0 29.0 0.00 0.00 0.00 35 995.8
20260504023505 26 304 9.7 30.6 0.00 0.00 0.00 35 995.7
20260504023005 26 296 8.0 30.6 0.00 0.00 0.00 34 995.6
20260504022505 26 302 6.4 29.0 0.00 0.00 0.00 33 995.5
20260504021506 26 297 8.0 32.2 0.00 0.00 0.00 35 995.6
20260504021006 26 301 6.4 22.5 0.00 0.00 0.00 36 995.6
20260504020005 26 311 6.4 32.2 0.00 0.00 0.00 33 995.5
20260504015505 26 296 6.4 29.0 0.00 0.00 0.00 34 995.4
20260504013505 26 285 11.3 32.2 0.00 0.00 0.00 34 995.2
20260504013005 27 294 11.3 32.2 0.00 0.00 0.00 35 995.4
20260504012506 27 303 9.7 32.2 0.00 0.00 0.00 35 995.2
20260504011005 27 301 11.3 33.8 0.00 0.00 0.00 35 995.1
20260504010005 27 304 4.8 30.6 0.00 0.00 0.00 35 994.8
20260504004505 27 315 8.0 30.6 0.00 0.00 0.00 35 995.0
20260504004005 27 314 8.0 35.4 0.00 0.00 0.00 34 995.0
20260504003006 27 301 8.0 32.2 0.00 0.00 0.00 38 995.1
20260504002006 28 298 11.3 33.8 0.00 0.00 0.00 36 995.0
20260504001505 28 302 9.7 32.2 0.00 0.00 0.00 35 994.6
20260504001005 28 298 8.0 30.6 0.00 0.00 0.00 33 994.5